Location: Ammerl�gen
(47.2167°N, 9.6000°E)
Time: 03:47:48
(UTC+00:00)

NOAA 19 - Pass Details

Date: 07 December 2021
Orbit: 841 x 860 km, 99.2° (Epoch: 16 January)

Event Time Altitude Azimuth Distance (km) Brightness Sun altitude
Rises 16:18:51 0° 114° (ESE) 3,393 8.0 -7.8°
Reaches altitude 10° 16:21:55 10° 96° (E) 2,465 7.1 -8.3°
Maximum altitude 16:25:27 18° 55° (NE) 1,968 6.5 -8.8°
Drops below altitude 10° 16:29:01 10° 15° (NNE) 2,481 7.3 -9.4°
Sets 16:32:06 0° 357° (N) 3,424 8.2 -9.9°
